Terug naar catalogus

STARLINK-32828

ActiefCommunicatieVLEO
NORAD 63045·PAYLOAD·🇺🇸 United States

Gelanceerd Feb 18, 2025 vanaf Cape Canaveral Space Force Station

Loading…

Volgende Passages (komende 24 uur)

TLE

VersSource: CelesTrak SupGP

Epoch: Sep 15, 2026, 02:58 UTC

1 63045C 25034S   26258.12409722  .00018687  00000+0  55213-3 0  2588
2 63045  53.1573 108.5878 0001235  85.1624 292.4546 15.34379313    10

Volg STARLINK-32828 in realtime met AllMySat

Download on the App Store